User: anonymous   Login
Location: Unspecified
(0.0000°N, 0.0000°E)
Time: 11:02:13
(UTC+00:00)
Language:

RAX-2 - Orbit

View from above orbital plane
View from above orbital plane
View from above satellite
View from above satellite

Ground track
Ground track

The orbit data is extracted from the following two-line orbital elements,

1 37853U 11061D   14352.94127109  .00017613  00000-0  11327-2 0  9919
2 37853 101.7028 111.0175 0207347 241.3467 240.5062 14.92492430170187
Epoch (UTC): 18 December 2014 22:35:25
Eccentricity: 0.0207347
inclination: 101.7028°
perigee height: 445 km
apogee height: 734 km
right ascension of ascending node: 111.0175°
argument of perigee: 241.3467°
revolutions per day: 14.92492430
mean anomaly at epoch: 240.5062°
orbit number at epoch: 17018

The dashed part of the orbit path shows where the satellite is in the earth's shadow,  

DLR